Location: Cleveland
(41.4990°N, 81.6960°W)
Time: 09:37:54
(UTC-04:00)

ISS - Pass Details

Date: 28 September 2021
Orbit: 417 x 423 km, 51.6° (Epoch: 28 October)

Event Time Altitude Azimuth Distance (km) Brightness Sun altitude
Rises 19:35:44 0° 300° (WNW) 2,363 1.3 -5.1°
Reaches altitude 10° 19:38:34 10° 326° (NW) 1,500 -0.4 -5.6°
Maximum altitude 19:40:32 15° 2° (N) 1,253 -1.3 -6.0°
Drops below altitude 10° 19:42:30 10° 38° (NE) 1,502 -1.3 -6.3°
Enters shadow 19:44:13 - 56° (NE) 1,988 -0.8 -6.7°
